Date String (YYYY-MM-DD hh:mm:ss) UTC,Instrument flags,absolute air pressure of the measurement (hPa),sample flow rate (lpm),inlet stack bypass flow (lpm),air temperature of the measurement (°C),ambient temperature measured by the external sensor (°C),aerosol sample conditioner tube jacket temperature (°C),OPC LED temperature (°C),internal box temperature (°C),relative humidity of the measurement (%),span deviation,mass concentration of particles derived from Lorenz-Mie calculation of OPC scattering (μg/m³),mass concentration of particles derived from Lorenz-Mie calculation of OPC scattering (μg/m³),mass concentration of particles derived from Lorenz-Mie calculation of OPC scattering (μg/m³)
DateTimeUTC,F1_M11,P_M11,Q1_M11,Q2_M11,T1_M11,T2_M11,T3_M11,T4_M11,T5_M11,U1_M11,ZSPAN_M11,X0_M11,X2_M11,X1_M11
2024-05-04 04:00:00,SystemResetWarning,0830.0,5.01,000.00,024.2,023.6,000.0,032.6,026.1,019.2,0000.0,0018.56,0003.82,0001.52
2024-05-04 04:01:00,SystemResetWarning,0830.1,5.00,000.00,024.2,023.6,000.0,032.6,026.1,018.9,0000.0,0017.62,0003.74,0001.47
2024-05-04 04:02:00,SystemResetWarning,0830.1,5.00,000.00,024.2,023.7,000.0,032.6,026.1,018.3,0000.0,0018.86,0003.74,0001.45
2024-05-04 04:03:00,SystemResetWarning,0830.0,5.00,000.00,024.2,023.7,000.0,032.6,026.2,018.1,0000.0,0019.60,0003.76,0001.45
2024-05-04 04:04:00,SystemResetWarning,0830.0,4.99,000.00,024.3,023.7,000.0,032.7,026.2,017.9,0000.0,0019.52,0003.73,0001.45
2024-05-04 04:05:00,SystemResetWarning,0830.0,5.00,000.00,024.3,023.7,000.0,032.7,026.2,017.9,0000.0,0020.30,0003.74,0001.45
2024-05-04 04:06:00,SystemResetWarning,0830.0,5.00,000.00,024.3,023.7,000.0,032.7,026.2,017.9,0000.0,0021.50,0003.74,0001.45
2024-05-04 04:07:00,SystemResetWarning,0830.1,5.01,000.00,024.3,023.7,000.0,032.7,026.2,017.9,0000.0,0021.61,0003.74,0001.43
2024-05-04 04:08:00,SystemResetWarning,0830.0,5.00,000.00,024.3,023.8,000.0,032.7,026.3,017.8,0000.0,0022.08,0003.74,0001.44
2024-05-04 04:09:00,SystemResetWarning,0830.0,5.01,000.00,024.3,023.7,000.0,032.8,026.2,017.9,0000.0,0021.45,0003.76,0001.44
2024-05-04 04:10:00,SystemResetWarning,0830.0,5.00,000.00,024.3,023.7,000.0,032.8,026.2,017.8,0000.0,0021.21,0003.72,0001.46
2024-05-04 04:11:00,SystemResetWarning,0830.0,4.99,000.00,024.3,023.7,000.0,032.8,026.2,017.9,0000.0,0020.16,0003.71,0001.49
2024-05-04 04:12:00,SystemResetWarning,0830.1,5.00,000.00,024.3,023.7,000.0,032.8,026.2,017.8,0000.0,0020.38,0003.79,0001.50
2024-05-04 04:13:00,SystemResetWarning,0830.0,5.00,000.00,024.3,023.7,000.0,032.8,026.1,017.7,0000.0,0019.62,0003.87,0001.51
2024-05-04 04:14:00,SystemResetWarning,0830.0,5.00,000.00,024.3,023.7,000.0,032.8,026.2,017.6,0000.0,0018.51,0003.89,0001.52
2024-05-04 04:15:00,SystemResetWarning,0830.1,5.00,000.00,024.3,023.7,000.0,032.8,026.2,017.7,0000.0,0018.01,0003.88,0001.52
2024-05-04 04:16:00,SystemResetWarning,0830.1,5.00,000.00,024.3,023.7,000.0,032.8,026.2,017.7,0000.0,0017.71,0003.88,0001.52
2024-05-04 04:17:00,SystemResetWarning,0830.1,5.00,000.00,024.3,023.7,000.0,032.8,026.2,017.8,0000.0,0018.32,0003.85,0001.53
2024-05-04 04:18:00,SystemResetWarning,0830.2,5.00,000.00,024.4,023.7,000.0,032.8,026.3,017.8,0000.0,0017.65,0003.81,0001.55
2024-05-04 04:19:00,SystemResetWarning,0830.2,5.00,000.00,024.4,023.7,000.0,032.8,026.3,017.8,0000.0,0016.71,0003.80,0001.56
2024-05-04 04:20:00,SystemResetWarning,0830.2,4.99,000.00,024.4,023.8,000.0,032.8,026.3,017.7,0000.0,0016.16,0003.74,0001.56
2024-05-04 04:21:00,SystemResetWarning,0830.2,5.00,000.00,024.4,023.8,000.0,032.9,026.3,017.7,0000.0,0016.57,0003.76,0001.56
2024-05-04 04:22:00,SystemResetWarning,0830.2,5.00,000.00,024.4,023.8,000.0,032.9,026.3,017.6,0000.0,0016.78,0003.77,0001.55
2024-05-04 04:23:00,SystemResetWarning,0830.3,5.00,000.00,024.4,023.8,000.0,032.9,026.3,017.5,0000.0,0016.51,0003.78,0001.55
2024-05-04 04:24:00,SystemResetWarning,0830.3,5.00,000.00,024.4,023.9,000.0,032.9,026.3,017.5,0000.0,0016.47,0003.73,0001.56
2024-05-04 04:25:00,SystemResetWarning,0830.3,5.00,000.00,024.5,023.9,000.0,032.9,026.4,017.5,0000.0,0016.70,0003.70,0001.55
2024-05-04 04:26:00,SystemResetWarning,0830.3,5.00,000.00,024.5,023.9,000.0,032.9,026.4,017.4,0000.0,0017.97,0003.68,0001.54
2024-05-04 04:27:00,SystemResetWarning,0830.3,5.00,000.00,024.5,023.9,000.0,032.9,026.4,017.3,0000.0,0018.34,0003.66,0001.53
2024-05-04 04:28:00,SystemResetWarning,0830.3,5.00,000.00,024.5,023.9,000.0,032.9,026.4,017.4,0000.0,0016.73,0003.71,0001.55
2024-05-04 04:29:00,SystemResetWarning,0830.3,5.00,000.00,024.5,023.9,000.0,032.9,026.4,017.4,0000.0,0017.39,0003.68,0001.55
2024-05-04 04:30:00,SystemResetWarning,0830.4,4.99,000.00,024.6,023.9,000.0,032.9,026.4,017.3,0000.0,0018.51,0003.69,0001.54
2024-05-04 04:31:00,SystemResetWarning,0830.4,5.00,000.00,024.6,024.0,000.0,033.0,026.5,017.3,0000.0,0019.68,0003.70,0001.54
2024-05-04 04:32:00,SystemResetWarning,0830.5,5.00,000.00,024.6,024.0,000.0,033.0,026.4,017.4,0000.0,0019.76,0003.72,0001.54
2024-05-04 04:33:00,SystemResetWarning,0830.7,5.02,000.00,024.6,024.0,000.0,033.0,026.4,017.4,0000.0,0019.54,0003.76,0001.56
2024-05-04 04:34:00,SystemResetWarning,0830.4,5.00,000.00,024.6,024.0,000.0,033.0,026.5,017.4,0000.0,0020.33,0003.75,0001.56
2024-05-04 04:35:00,SystemResetWarning,0830.4,5.00,000.00,024.6,024.0,000.0,033.0,026.5,017.4,0000.0,0020.36,0003.76,0001.56
2024-05-04 04:36:00,SystemResetWarning,0830.4,5.00,000.00,024.6,024.0,000.0,033.0,026.4,017.3,0000.0,0020.52,0003.78,0001.56
2024-05-04 04:37:00,SystemResetWarning,0830.5,4.99,000.00,024.6,024.0,000.0,033.0,026.5,017.4,0000.0,0019.60,0003.75,0001.57
2024-05-04 04:38:00,SystemResetWarning,0830.7,5.00,000.00,024.6,024.0,000.0,033.0,026.5,017.3,0000.0,0019.41,0003.75,0001.56
2024-05-04 04:39:00,SystemResetWarning,0830.6,5.01,000.00,024.6,024.0,000.0,033.0,026.5,017.1,0000.0,0019.18,0003.72,0001.56
2024-05-04 04:40:00,SystemResetWarning,0830.4,4.99,000.00,024.7,024.0,000.0,033.0,026.5,017.0,0000.0,0018.07,0003.72,0001.57
2024-05-04 04:41:00,SystemResetWarning,0830.6,4.99,000.00,024.7,024.0,000.0,033.0,026.5,017.0,0000.0,0017.69,0003.71,0001.57
2024-05-04 04:42:00,SystemResetWarning,0830.7,5.01,000.00,024.7,024.0,000.0,033.0,026.6,017.0,0000.0,0016.96,0003.68,0001.57
2024-05-04 04:43:00,SystemResetWarning,0830.8,5.01,000.00,024.7,024.0,000.0,033.1,026.6,017.0,0000.0,0016.49,0003.66,0001.56
2024-05-04 04:44:00,SystemResetWarning,0830.6,4.99,000.00,024.7,024.1,000.0,033.0,026.5,017.0,0000.0,0016.52,0003.59,0001.53
2024-05-04 04:45:00,SystemResetWarning,0830.6,4.99,000.00,024.7,024.1,000.0,033.1,026.5,017.1,0000.0,0016.03,0003.58,0001.52
2024-05-04 04:46:00,SystemResetWarning,0830.6,5.00,000.00,024.7,024.1,000.0,033.1,026.5,017.1,0000.0,0015.44,0003.54,0001.52
2024-05-04 04:47:00,SystemResetWarning,0830.6,5.01,000.00,024.7,024.1,000.0,033.1,026.5,017.0,0000.0,0015.03,0003.48,0001.51
2024-05-04 04:48:00,SystemResetWarning,0830.6,5.01,000.00,024.7,024.1,000.0,033.1,026.5,017.0,0000.0,0015.11,0003.48,0001.50
2024-05-04 04:49:00,SystemResetWarning,0830.6,4.99,000.00,024.7,024.1,000.0,033.1,026.5,017.0,0000.0,0015.39,0003.50,0001.52
2024-05-04 04:50:00,SystemResetWarning,0830.6,4.99,000.00,024.7,024.1,000.0,033.1,026.5,016.9,0000.0,0014.74,0003.45,0001.52
2024-05-04 04:51:00,SystemResetWarning,0830.6,5.00,000.00,024.7,024.1,000.0,033.1,026.6,016.8,0000.0,0014.34,0003.46,0001.52
2024-05-04 04:52:00,SystemResetWarning,0830.5,5.00,000.00,024.7,024.1,000.0,033.1,026.6,016.8,0000.0,0013.45,0003.44,0001.52
2024-05-04 04:53:00,SystemResetWarning,0830.6,5.00,000.00,024.7,024.1,000.0,033.1,026.6,016.9,0000.0,0013.13,0003.45,0001.51
2024-05-04 04:54:00,SystemResetWarning,0830.6,5.00,000.00,024.7,024.0,000.0,033.1,026.6,016.9,0000.0,0013.38,0003.42,0001.51
2024-05-04 04:55:00,SystemResetWarning,0830.6,5.00,000.00,024.7,024.0,000.0,033.1,026.6,017.0,0000.0,0013.05,0003.41,0001.52
2024-05-04 04:56:00,SystemResetWarning,0830.7,4.99,000.00,024.7,024.0,000.0,033.1,026.5,017.1,0000.0,0012.83,0003.42,0001.52
2024-05-04 04:57:00,SystemResetWarning,0830.7,5.00,000.00,024.7,024.0,000.0,033.1,026.5,017.2,0000.0,0012.81,0003.38,0001.51
2024-05-04 04:58:00,SystemResetWarning,0830.8,5.00,000.00,024.7,024.0,000.0,033.1,026.5,017.3,0000.0,0012.94,0003.37,0001.50
2024-05-04 04:59:00,SystemResetWarning,0830.9,5.00,000.00,024.7,024.0,000.0,033.2,026.5,017.5,0000.0,0013.25,0003.36,0001.49
